Wind_Speed
24 24 25 26 25 25 25 26 26 25 27 27 27 24 24 25 24 24 24 24 24 25 25 26 27 26 26 26 26 27 27 26 26 26 26 26 25 24 24 24 23 23 22 22
25 25 25 25 25 25 26 26 27 27 27 27 28 26 25 25 25 25 26 26 26 26 26 26 26 27 27 27 27 27 27 27 27 26 26 26 25 24 24 24 23 23 23 23
23 24 24 25 25 25 26 26 26 27 27 27 28 27 26 26 26 26 26 27 27 27 27 26 26 26 27 26 27 27 27 27 27 27 26 25 25 25 25 24 24 23 23 23
21 22 24 24 25 25 25 26 26 26 27 27 27 28 27 27 27 27 27 28 27 27 27 27 27 26 26 27 27 27 27 28 28 27 26 26 26 25 25 25 24 24 24 25
22 22 22 24 24 24 25 26 26 26 26 26 26 26 27 27 27 27 27 27 28 28 28 27 27 27 26 27 28 28 28 28 29 28 26 26 26 25 25 25 26 25 25 26
23 23 22 23 23 23 24 26 26 25 25 25 25 26 27 27 27 27 27 27 27 27 28 27 27 28 27 26 26 26 27 27 28 27 27 26 26 26 25 25 25 25 25 26
23 23 23 23 23 22 24 25 25 25 25 26 26 27 27 27 27 27 27 27 27 27 27 27 27 28 28 27 26 27 27 27 27 27 27 27 26 26 26 26 26 26 26 25
23 23 23 23 23 23 24 24 24 25 25 26 26 26 26 26 26 26 26 26 26 26 26 27 27 27 28 28 27 27 27 26 27 27 28 27 27 26 26 26 26 25 25 25
24 24 24 23 23 23 23 24 24 25 25 25 25 25 25 25 25 26 26 26 26 26 26 26 27 27 27 27 27 27 26 26 25 26 27 27 26 26 25 25 25 25 24 24
24 25 24 24 24 24 24 24 24 25 25 25 25 25 25 25 25 26 26 27 27 27 27 26 26 26 26 26 26 26 26 25 25 25 25 26 26 25 25 26 26 25 25 24
24 25 24 24 25 25 24 24 25 25 25 25 25 25 26 26 26 27 27 28 28 28 27 26 25 25 25 25 25 25 25 25 25 25 26 26 26 26 25 25 25 25 25 25
23 24 24 24 25 25 24 23 23 24 24 24 24 25 26 26 26 26 26 27 27 27 26 25 25 26 26 25 25 25 24 25 25 25 26 26 26 26 26 26 26 26 26 26
23 23 23 24 24 24 24 24 23 24 24 24 24 25 26 26 26 27 27 27 27 26 26 26 26 26 26 26 26 26 25 25 26 26 26 26 26 26 26 26 26 26 26 26
22 22 23 23 24 24 24 24 24 24 24 24 25 26 26 27 27 27 28 28 27 26 26 25 26 26 26 26 26 25 25 26 26 26 26 25 26 26 26 26 26 26 27 26
21 22 22 22 22 22 23 23 23 24 24 24 24 25 26 27 27 27 27 28 27 27 27 27 26 26 25 25 25 24 24 25 25 26 25 25 25 25 26 26 26 26 27 27
20 20 19 20 20 21 21 22 23 23 24 24 24 24 25 26 26 27 27 27 26 27 27 27 27 26 25 25 25 25 24 24 24 24 24 25 25 25 26 26 26 25 26 27
18 18 18 18 19 20 21 22 23 23 24 24 24 24 25 24 25 25 25 26 26 26 26 26 25 25 25 25 25 24 24 24 24 24 25 25 25 26 26 27 26 26 26 27
17 18 18 18 19 19 20 21 22 23 23 24 24 25 25 25 24 24 24 25 26 25 25 26 25 25 24 24 24 24 24 25 25 25 26 26 26 26 26 26 26 26 27 27
17 17 17 17 18 19 20 21 21 22 23 23 24 24 25 25 24 24 24 24 24 24 24 24 24 24 24 24 24 24 24 25 25 25 25 26 26 26 27 26 26 26 27 28
16 16 17 17 18 19 20 20 21 21 22 22 22 22 23 23 24 24 22 22 23 23 22 22 22 22 22 23 23 24 24 24 24 24 25 25 26 26 27 27 27 27 27 28
15 16 16 16 17 18 18 18 19 19 20 20 21 22 22 22 23 22 21 21 20 21 21 21 21 21 21 21 21 22 23 24 24 24 24 24 25 26 26 26 27 27 27 27
16 16 16 16 16 16 16 16 17 18 19 20 20 20 20 20 20 21 20 19 19 20 20 20 20 19 20 20 20 21 22 22 22 23 23 23 24 24 24 25 25 25 25 26
15 15 15 15 15 16 16 15 15 16 16 16 17 18 18 18 18 18 18 18 19 19 20 19 19 19 19 20 20 21 22 22 21 21 21 21 22 22 22 22 23 23 24 24
14 14 14 14 14 14 14 14 14 14 14 14 14 15 16 17 17 17 18 18 18 19 19 19 18 19 19 19 20 20 20 20 20 20 20 20 21 21 21 21 21 22 22 23
13 12 12 12 12 12 12 12 13 13 14 14 14 14 15 15 16 16 17 17 17 17 18 18 19 19 19 19 19 19 19 19 20 20 19 19 20 20 20 20 20 21 21 22
12 12 12 12 12 12 12 12 12 13 14 14 14 14 15 16 16 17 17 17 18 18 18 18 18 18 18 18 18 19 18 19 18 18 18 19 19 19 20 20 20 21 21 21
12 12 13 13 12 12 12 12 13 13 13 14 14 15 15 15 16 17 17 17 17 18 18 18 18 18 18 18 18 18 19 19 19 19 19 19 19 19 20 20 20 21 21 21
Wind_Direction
249 249 251 250 249 247 246 246 248 251 252 253 252 254 255 255 255 254 255 257 258 259 258 258 259 260 262 262 261 261 262 262 262 261 263 264 265 265 264 265 265 265 264 264
252 250 250 248 248 247 248 249 249 251 253 254 255 255 255 256 256 255 256 256 257 259 260 261 261 261 262 261 261 262 263 264 262 262 262 264 265 265 264 263 263 264 263 264
255 251 250 249 248 248 249 251 252 253 254 254 255 255 254 254 254 255 255 256 258 259 260 261 262 260 259 260 262 263 263 262 260 262 263 263 264 265 264 264 264 268 269 268
255 250 248 253 252 251 252 253 253 254 254 254 255 254 254 255 255 256 256 257 258 259 261 263 262 260 261 260 262 261 259 259 259 261 263 264 264 266 267 266 267 269 270 271
252 251 254 254 252 251 252 254 254 255 255 255 254 253 254 255 256 257 257 257 257 259 261 262 262 261 264 264 261 257 257 258 259 258 260 264 264 266 268 269 268 268 270 269
251 252 254 256 255 252 253 253 253 254 255 255 254 254 254 254 255 256 256 256 256 258 259 261 262 263 264 264 262 258 258 258 260 258 260 263 265 266 267 269 269 269 271 270
251 253 254 256 256 253 252 252 253 254 255 256 256 255 255 254 254 255 255 255 256 258 260 261 263 264 264 267 264 262 261 262 260 258 259 262 264 264 266 269 270 270 270 269
253 253 253 255 256 255 254 254 254 254 255 256 257 257 255 254 254 256 256 256 256 260 262 263 264 266 268 270 268 263 262 261 259 258 258 261 263 263 266 268 269 269 268 267
253 253 254 255 257 256 257 257 256 256 256 256 257 256 256 256 255 256 258 259 259 260 262 264 265 267 270 271 270 265 262 260 258 257 257 260 261 260 264 266 268 270 269 268
254 253 254 254 256 257 259 259 259 259 258 257 256 255 255 255 255 256 258 258 260 261 263 266 265 267 268 269 270 269 265 261 258 258 259 259 261 264 266 267 267 268 270 269
256 255 255 255 255 256 257 258 258 259 259 259 257 255 255 256 256 256 257 258 259 260 263 265 265 267 267 267 267 268 266 262 260 260 260 262 265 266 267 267 268 269 271 271
257 258 259 258 257 256 256 256 257 258 257 257 257 257 257 256 257 257 257 258 258 260 261 263 265 266 266 265 266 267 265 263 264 265 266 266 265 268 268 268 267 268 269 270
259 260 259 259 258 257 256 257 258 258 257 256 256 257 257 256 256 257 258 258 258 259 261 263 264 265 266 267 267 265 264 264 263 264 265 267 267 268 269 269 268 266 267 269
262 262 261 260 258 256 257 258 258 258 257 257 257 257 257 257 257 258 257 256 258 259 261 264 265 265 265 268 268 266 265 265 264 264 265 266 267 268 268 269 269 268 268 269
265 265 264 262 258 255 256 256 257 258 259 258 258 258 258 257 257 257 256 256 258 260 262 263 264 266 267 267 267 267 266 266 265 265 265 266 268 269 269 269 269 269 270 270
265 264 263 261 259 258 256 256 257 258 258 258 259 258 257 257 256 257 257 257 259 260 262 262 263 264 266 266 267 267 266 266 265 265 266 267 268 270 270 269 269 269 269 270
265 263 262 263 261 258 257 258 258 258 257 257 259 259 257 257 257 257 258 258 258 260 262 262 264 265 265 264 264 265 266 267 266 266 266 267 268 270 271 271 270 268 269 269
267 266 266 265 262 259 259 260 260 260 257 256 258 259 258 258 258 258 260 261 261 262 261 260 262 264 264 264 263 265 266 267 267 268 268 267 267 269 271 271 271 269 268 269
267 268 268 264 261 261 261 262 262 260 258 257 259 259 258 257 257 258 260 263 264 263 261 260 262 263 264 264 263 264 266 269 269 268 268 268 268 269 270 272 272 271 269 269
269 270 269 268 265 264 264 263 262 261 259 258 257 257 256 255 255 256 259 261 260 260 260 259 262 265 264 263 263 264 267 269 270 270 269 269 269 269 270 271 272 272 271 270
275 274 272 270 270 268 267 266 264 263 261 259 257 256 255 255 254 253 257 259 259 259 260 262 263 265 264 264 265 267 269 270 271 271 271 271 270 269 270 271 271 271 272 272
279 277 276 274 272 270 269 269 269 266 263 260 258 256 255 255 255 254 257 259 259 259 261 263 263 265 266 267 269 271 273 275 275 273 272 272 272 272 272 271 271 272 272 273
277 278 278 277 274 271 270 270 269 266 263 260 257 254 253 253 255 258 258 257 258 259 261 262 264 266 268 270 272 274 274 275 275 274 274 274 275 275 276 274 272 271 271 272
276 279 279 277 275 271 268 268 268 265 262 259 258 256 254 254 255 258 259 259 259 260 261 261 265 268 269 270 272 273 273 274 275 276 277 277 278 278 278 277 273 272 272 273
275 279 281 277 272 268 266 266 265 262 259 257 258 259 259 259 258 256 259 260 260 262 264 264 267 270 271 272 273 272 272 273 275 277 277 277 278 279 279 277 275 272 270 272
275 275 277 278 272 269 270 269 265 261 259 258 259 261 262 263 264 264 265 263 262 263 265 267 269 271 273 274 274 273 272 273 275 278 278 278 278 278 278 276 276 276 276 277
274 274 274 273 271 270 270 269 267 265 262 262 264 266 268 269 269 269 270 268 266 266 266 267 269 271 272 274 275 274 273 273 275 277 277 278 278 278 277 277 278 278 278 278
Height
5783 5785 5786 5787 5789 5791 5793 5795 5797 5799 5799 5800 5801 5803 5804 5805 5807 5807 5808 5809 5809 5810 5810 5811 5812 5812 5813 5813 5813 5814 5814 5814 5814 5814 5814 5813 5813 5813 5813 5812 5812 5812 5811 5811
5776 5777 5779 5780 5782 5784 5786 5788 5789 5791 5792 5793 5794 5795 5797 5798 5799 5800 5801 5802 5802 5803 5803 5804 5804 5804 5805 5805 5806 5806 5807 5807 5807 5806 5806 5805 5805 5805 5805 5805 5805 5805 5804 5804
5769 5770 5771 5773 5775 5777 5779 5780 5782 5783 5785 5785 5787 5788 5789 5791 5792 5793 5794 5794 5795 5795 5796 5796 5797 5796 5797 5798 5798 5799 5799 5799 5799 5799 5799 5798 5798 5798 5798 5798 5798 5797 5797 5797
5762 5764 5765 5768 5768 5770 5771 5773 5774 5775 5776 5778 5779 5780 5782 5783 5784 5785 5786 5787 5788 5788 5789 5789 5789 5789 5789 5790 5791 5791 5791 5791 5791 5791 5791 5791 5791 5791 5791 5791 5790 5790 5790 5790
5755 5756 5757 5759 5760 5762 5764 5765 5766 5767 5769 5770 5771 5773 5774 5775 5776 5777 5778 5779 5780 5781 5781 5781 5782 5782 5783 5783 5782 5782 5782 5783 5783 5783 5784 5784 5784 5784 5783 5783 5783 5783 5783 5783
5748 5750 5751 5753 5753 5754 5757 5757 5758 5759 5761 5763 5764 5766 5767 5768 5769 5769 5770 5771 5772 5773 5773 5774 5774 5775 5775 5774 5774 5774 5774 5774 5775 5775 5776 5777 5776 5776 5776 5776 5776 5776 5776 5775
5741 5743 5744 5745 5746 5748 5751 5751 5751 5752 5754 5755 5756 5758 5759 5760 5761 5761 5762 5763 5764 5765 5766 5766 5767 5767 5767 5767 5767 5767 5766 5766 5767 5767 5768 5769 5769 5768 5768 5768 5768 5768 5768 5768
5734 5736 5739 5737 5739 5741 5742 5743 5744 5745 5746 5748 5749 5749 5750 5752 5753 5754 5755 5756 5756 5757 5758 5758 5759 5759 5759 5759 5759 5759 5759 5759 5759 5759 5760 5761 5761 5760 5759 5760 5760 5760 5759 5759
5728 5730 5729 5730 5731 5733 5734 5735 5736 5737 5739 5740 5741 5742 5743 5744 5745 5746 5747 5748 5749 5750 5750 5750 5751 5751 5751 5751 5751 5751 5751 5751 5751 5751 5752 5752 5753 5753 5752 5752 5752 5752 5751 5751
5720 5721 5721 5722 5724 5725 5726 5727 5729 5730 5731 5732 5733 5734 5735 5737 5738 5739 5740 5740 5741 5742 5742 5742 5743 5743 5743 5743 5743 5743 5743 5743 5743 5744 5744 5744 5744 5744 5744 5744 5744 5744 5744 5744
5712 5713 5714 5715 5716 5718 5719 5720 5721 5722 5723 5724 5725 5727 5728 5729 5730 5731 5732 5732 5733 5733 5734 5734 5735 5735 5735 5735 5735 5735 5735 5735 5736 5736 5737 5736 5737 5737 5737 5737 5736 5736 5736 5736
5705 5706 5706 5707 5709 5710 5711 5712 5713 5715 5716 5717 5718 5719 5720 5721 5722 5723 5724 5725 5725 5726 5726 5727 5727 5727 5727 5727 5727 5728 5727 5727 5728 5728 5729 5729 5729 5729 5728 5729 5729 5728 5728 5728
5697 5698 5699 5700 5701 5702 5703 5705 5705 5706 5708 5709 5710 5711 5712 5712 5713 5715 5715 5716 5717 5717 5718 5719 5719 5719 5719 5719 5719 5719 5719 5720 5720 5720 5720 5721 5721 5721 5720 5720 5720 5720 5720 5720
5690 5690 5691 5692 5693 5694 5695 5696 5697 5698 5699 5701 5702 5702 5703 5704 5705 5706 5707 5708 5708 5709 5710 5710 5711 5711 5711 5711 5711 5711 5711 5711 5712 5712 5712 5713 5713 5713 5712 5712 5712 5712 5712 5711
5683 5683 5684 5685 5685 5686 5687 5688 5689 5690 5691 5692 5693 5694 5694 5695 5697 5698 5698 5700 5700 5701 5702 5702 5702 5703 5703 5703 5703 5703 5703 5703 5704 5704 5704 5705 5705 5704 5704 5704 5703 5703 5703 5703
5676 5676 5677 5677 5678 5679 5679 5680 5681 5682 5683 5684 5685 5685 5686 5687 5688 5689 5690 5691 5692 5693 5694 5694 5694 5695 5695 5695 5696 5696 5696 5696 5696 5696 5696 5696 5696 5696 5696 5696 5695 5695 5695 5695
5669 5670 5670 5670 5671 5671 5672 5673 5673 5674 5675 5676 5677 5678 5678 5679 5680 5681 5682 5684 5684 5685 5686 5686 5686 5687 5687 5687 5688 5688 5688 5688 5688 5688 5688 5688 5688 5688 5688 5687 5687 5687 5687 5686
5663 5664 5664 5664 5664 5664 5665 5666 5666 5667 5667 5668 5669 5670 5671 5671 5672 5673 5675 5676 5676 5677 5677 5678 5678 5678 5679 5679 5679 5680 5680 5679 5679 5679 5679 5679 5679 5679 5679 5679 5678 5678 5678 5678
5658 5658 5658 5657 5658 5658 5658 5658 5659 5659 5660 5660 5661 5662 5663 5663 5664 5666 5667 5668 5668 5669 5669 5669 5669 5670 5670 5670 5671 5671 5671 5671 5671 5671 5671 5671 5671 5671 5670 5670 5669 5669 5669 5668
5652 5652 5652 5651 5651 5651 5651 5651 5651 5652 5652 5653 5654 5655 5655 5656 5657 5658 5659 5660 5660 5661 5661 5661 5662 5662 5662 5662 5662 5663 5663 5663 5662 5662 5662 5662 5662 5662 5661 5661 5661 5660 5659 5659
5647 5646 5646 5645 5645 5645 5644 5644 5644 5645 5645 5646 5647 5648 5648 5649 5650 5651 5652 5653 5653 5654 5654 5654 5654 5655 5655 5654 5655 5655 5655 5654 5654 5654 5653 5653 5653 5652 5652 5652 5651 5651 5650 5650
5641 5641 5640 5640 5639 5639 5638 5638 5638 5638 5638 5639 5640 5640 5641 5642 5643 5644 5645 5646 5646 5647 5647 5647 5648 5648 5648 5648 5648 5647 5647 5647 5646 5645 5645 5644 5644 5644 5643 5643 5642 5642 5642 5641
5635 5635 5635 5634 5634 5633 5633 5633 5632 5632 5633 5633 5633 5634 5635 5635 5636 5637 5638 5639 5639 5640 5640 5641 5641 5641 5641 5641 5641 5640 5640 5639 5638 5637 5637 5636 5636 5635 5635 5634 5634 5634 5633 5632
5630 5630 5629 5629 5628 5628 5628 5627 5627 5627 5627 5628 5628 5629 5629 5630 5631 5631 5632 5632 5633 5633 5634 5634 5635 5635 5635 5634 5634 5633 5632 5632 5631 5630 5630 5629 5628 5628 5627 5626 5626 5625 5625 5625
5625 5625 5624 5624 5623 5623 5623 5622 5622 5622 5623 5623 5623 5624 5624 5624 5625 5625 5626 5627 5627 5628 5628 5628 5628 5628 5628 5627 5627 5626 5626 5625 5625 5624 5623 5622 5622 5621 5620 5619 5618 5618 5618 5617
5620 5620 5620 5619 5619 5618 5618 5618 5618 5618 5618 5618 5618 5619 5619 5619 5619 5620 5620 5620 5621 5621 5621 5622 5622 5622 5621 5621 5620 5620 5619 5618 5618 5617 5617 5616 5615 5614 5613 5612 5612 5611 5610 5609
5616 5616 5615 5614 5614 5614 5614 5613 5613 5613 5613 5613 5614 5614 5614 5614 5614 5614 5614 5614 5615 5615 5615 5615 5615 5615 5615 5614 5614 5613 5613 5612 5611 5611 5610 5609 5608 5607 5606 5606 5605 5604 5603 5602